Regional Weather Roundup
Issued by NWS Sterling, VA

Home | Current Version | Previous Version | Graphics & Text | Print | Product List | Glossary On
Versions: 1 2 3 4 5 6 7 8 9 10 11 12 13 14 15 16 17 18 19 20 21 22 23 24 25 26 27 28 29 30 31 32 33 34 35 36 37 38 39 40 41 42 43 44 45 46 47 48 49 50
014
ASUS41 KLWX 241710
RWRLWX

REGIONAL WEATHER ROUNDUP
NATIONAL WEATHER SERVICE BALTIMORE MD/WASHINGTON DC
1200 PM EST FRI FEB 24 2017

Note: "FAIR" indicates few or no clouds below 12,000 feet
with no significant weather and/or obstructions to visibility.
 TC=TEMPERATURE CELSIUS

 * =Non NWS site. Station does not report precipitation (e.g. rain,
    snow, etc.), thunder, or fog.

DCZ001-MDZ009-015-VAZ040>042-051-053>054-241800-
WASHINGTON METRO

CITY           SKY/WX    TMP DP  RH WIND       PRES   REMARKS
WASHINGTON NAT PTSUNNY   74  56  53 S15       29.90F
DULLES         MOSUNNY   74  53  48 S14G26    29.88F
ANDREWS AFB    SUNNY     74  53  48 S16       29.89F
FT BELVOIR     SUNNY     74  55  50 S14       29.89F
QUANTICO       MOSUNNY   67  55  65 SW9       29.91F
COLLEGE PARK*  SUNNY     72  54  53 S9G18     29.89F
LEESBURG*      MOSUNNY   75  55  50 MISG      29.88F
MANASSAS*      SUNNY     75  54  47 SW12      29.88F
GAITHERSBURG*  MOSUNNY   73  54  49 S10       29.92F

$$

MDZ006>007-011-014-241800-
BALTIMORE METRO

CITY           SKY/WX    TMP DP  RH WIND       PRES   REMARKS
BWI AIRPORT    PTSUNNY   73  54  51 SW8       29.89F
MD SCIENCE CTR   N/A     67  53  61 MISG      29.91F
MARTIN STATE   MOSUNNY   63  57  82 SE13      29.94F
ANNAPOLIS      SUNNY     66  56  70 SE12      29.91F
FORT MEADE*    CLOUDY    72  52  49 SW10      29.91F

$$

MDZ012-015-019>023-241800-
MARYLAND EASTERN SHORE

CITY           SKY/WX    TMP DP  RH WIND       PRES   REMARKS
OCEAN CITY     SUNNY     67  58  72 S8        29.96F
SALISBURY      PTSUNNY   71  57  61 SW10      29.93F
BAY BRIDGE AP* SUNNY     70  57  64 S12       29.91F
CAMBRIDGE*     PTSUNNY   70  59  68 S13       29.93F
EASTON*        MOSUNNY   73  55  53 S12       29.97F

$$

MDZ017>025-241800-
SOUTHERN MARYLAND

CITY           SKY/WX    TMP DP  RH WIND       PRES   REMARKS
PATUXENT RIVER MOSUNNY   60  53  77 SE8       29.93F
ST INIGOES     SUNNY     71  58  63 SE8       29.92F
LEONARDTOWN*   SUNNY     70  54  56 S7        29.94F

$$

MDZ003>005-241800-
NORTH CENTRAL MARYLAND

CITY           SKY/WX    TMP DP  RH WIND       PRES   REMARKS
FREDERICK*     SUNNY     72  55  56 SW14G20   29.91F
HAGERSTOWN APT SUNNY     72  53  51 S14       29.85F
WESTMINSTER*   SUNNY     73  55  53 SW10G20   29.87F

$$

MDZ501>502-241800-
WESTERN MARYLAND

CITY           SKY/WX    TMP DP  RH WIND       PRES   REMARKS
OAKLAND*       PTSUNNY   64  46  52 SW9       29.87F
CUMBERLAND*    SUNNY     73  50  43 S8        29.86F

$$

VAZ025>031-241800-
SHENANDOAH VALLEY

CITY           SKY/WX    TMP DP  RH WIND       PRES   REMARKS
WINCHESTER*    SUNNY     72  50  46 S12G17    29.85F
FRONT ROYAL*   SUNNY     73  50  43 SW7G17    29.85F
LURAY*         SUNNY     73  54  49 S9G16     29.86F
NEW MARKET*    SUNNY     72  49  44 S13G23    29.85F
STAUNTON*      SUNNY     71  51  49 S8        29.90F
WAYNESBORO*    MOSUNNY   69  50  49 CALM      29.90F

$$

WVZ021-048>050-054>055-241800-
EASTERN WEST VIRGINIA PANHANDLE

CITY           SKY/WX    TMP DP  RH WIND       PRES   REMARKS
MARTINSBURG    SUNNY     72  51  47 S9        29.84F
PETERSBURG*    SUNNY     76  51  40 SE9       29.83F

$$

VAZ036>039-050-241800-
CENTRAL FOOTHILLS

CITY           SKY/WX    TMP DP  RH WIND       PRES   REMARKS
CHARLOTTESVILL MOSUNNY   75  55  49 S14       29.88F
CULPEPER*      MOSUNNY   73  56  53 SW14G22   29.90F
ORANGE*        SUNNY     73  54  49 SE6G18    29.91F
GORDONSVILLE*  MOSUNNY   72  56  57 SW13G18   29.89F
WARRENTON*     MOSUNNY   75  51  42 SW9       29.88F

$$

VAZ055>057-241800-
NORTH AND CENTRAL PIEDMONT

CITY           SKY/WX    TMP DP  RH WIND       PRES   REMARKS
FREDERICKSBRG* MOSUNNY   74  55  50 S14       29.89F
STAFFORD*      MOSUNNY   73  54  50 S13G20    29.94F

$$

NCZ024-NYZ072-PAZ021-071-VAZ022-071-241800-
OTHER REGIONAL OBSERVATIONS

CITY           SKY/WX    TMP DP  RH WIND       PRES   REMARKS
NEW YORK CITY  SUNNY     69  52  54 S7        29.95F
PHILADELPHIA   MOSUNNY   72  54  53 SW14      29.92F
PITTSBURGH     PTSUNNY   72  51  47 SW21G28   29.76F
ROANOKE        MOSUNNY   70  53  54 CALM      29.91F
RICHMOND       MOSUNNY   71  57  61 S12       29.93F
RALEIGH        MOSUNNY   72  56  57 CALM      29.93F

$$

ANZ530>537-241800-
MARINE OBSERVATIONS

STATION/POSITION TIME  TEMP    WIND        PRES
                       AIR SEA DIR/SP/G
                 (UTC) (F)     (DEG/KT/KT) (MB)
THOMAS PT LIGHT  1700   58 44  160/ 17/ 17   N/A
BALT KEY BRIDGE  1642   60     130/  9/ 12 1012.7F
COVE POINT       1642   49     180/ 10/ 11 1014.2F
LEWISETTA        1648   61 45   80/  3/  4 1013.2F
SOLOMONS ISLAND  1642   58 45  130/  7/  8   N/A
PINEY POINT      1648          150/ 10/ 10   N/A

$$





USA.gov is the U.S. government's official web portal to all federal, state and local government web resources and services.